Stations météo

réclame
Mon MeteoGroup
Dörnick, Allemagne (10150): Température de l'air & dewpoint: 18.05.2019 03:00:00 - 24.05.2019 03:00:00 (CEST)Dörnick, Allemagne (10150): Température de l'air 5cm & Température de l'air -5cm: 18.05.2019 03:00:00 - 24.05.2019 03:00:00 (CEST)Dörnick, Allemagne (10150): Température de l'air -20cm & Température de l'air -100cm: 18.05.2019 03:00:00 - 24.05.2019 03:00:00 (CEST)Dörnick, Allemagne (10150): Vitesse du vent & gusts: 18.05.2019 03:00:00 - 24.05.2019 03:00:00 (CEST)Dörnick, Allemagne (10150): Direction du vent: 18.05.2019 03:00:00 - 24.05.2019 03:00:00 (CEST)Dörnick, Allemagne (10150): reduced air pressure: 18.05.2019 03:00:00 - 24.05.2019 03:00:00 (CEST)Dörnick, Allemagne (10150): visibility: 18.05.2019 03:00:00 - 24.05.2019 03:00:00 (CEST)Dörnick, Allemagne (10150): Ensoleillement: 18.05.2019 03:00:00 - 24.05.2019 03:00:00 (CEST)Dörnick, Allemagne (10150): Quantités de précipitations: 18.05.2019 03:00:00 - 24.05.2019 03:00:00 (CEST)
Date & Time tt [°C] td [°C] tt 5cm [°C] tt -5cm [°C] tt -20cm [°C] tt -100cm [°C] ff [km/h] ff [knt] fx [km/h] fx [knt] dd ppp [hPa] vv [km] sd [min] rr [mm]
24.05.2019 03:00:00 6,9 6,7 4,7 10,0 13,8 12,0 4 2 5 3 S 1014,1 7 0 0,0
24.05.2019 02:00:00 7,5 7,1 5,9 10,7 14,1 12,0 3 1 5 3 NNW 1014,8 8 0 0,0
24.05.2019 01:00:00 8,4 7,9 6,4 11,4 14,5 12,0 3 1 4 2 SSW 1014,9 11 0 0,0
24.05.2019 00:00:00 10,2 8,1 8,0 12,1 14,8 12,0 3 2 13 7 W 1015,2 20 0 0,0
23.05.2019 23:00:00 9,5 8,7 7,1 12,7 15,2 12,0 4 2 8 4 S 1015,3 14 0 0,0
23.05.2019 22:00:00 11,4 9,7 8,3 14,0 15,5 12,0 6 3 8 5 SE 1015,3 24 0 0,0
23.05.2019 21:00:00 14,5 10,0 11,7 15,9 15,7 12,0 6 4 13 7 S 1015,3 26 8 0,0
23.05.2019 20:00:00 17,8 9,1 17,1 17,7 15,8 12,0 10 5 22 12 SSW 1015,7 40 25 0,0
23.05.2019 19:00:00 19,0 8,7 19,7 19,1 15,8 12,0 12 6 18 10 SSW 1015,8 31 14 0,0
23.05.2019 18:00:00 18,0 7,9 17,9 19,1 15,7 12,0 14 8 24 13 SW 1016,3 28 9 0,0
23.05.2019 17:00:00 19,3 8,3 22,6 21,8 15,4 12,0 14 7 25 13 SW 1016,6 18 49 0,0
23.05.2019 16:00:00 18,5 8,9 21,5 22,0 15,0 12,0 15 8 23 13 WSW 1017,1 18 30 0,0
23.05.2019 15:00:00 18,4 8,7 21,9 21,6 14,5 12,0 16 9 29 16 WSW 1017,4 19 43 0,0
23.05.2019 14:00:00 17,1 7,4 18,9 21,0 13,8 12,0 18 10 31 17 W 1017,8 27 48 0,0
23.05.2019 13:00:00 17,3 7,6 21,6 20,6 13,1 12,0 16 9 32 17 WSW 1018,1 13 60 0,0
23.05.2019 12:00:00 16,6 6,8 21,0 18,9 12,4 12,0 14 7 24 13 WSW 1018,3 24 60 0,0
23.05.2019 11:00:00 14,9 5,4 18,3 16,4 11,8 12,0 17 9 27 15 SSW 1018,5 22 60 0,0
23.05.2019 10:00:00 13,8 6,3 17,3 14,4 11,3 12,0 15 8 21 12 SW 1018,6 21 60 0,0
23.05.2019 09:00:00 12,2 7,8 15,4 11,8 11,0 12,0 11 6 20 11 WSW 1018,6 16 60 0,0
23.05.2019 08:00:00 10,1 8,2 11,7 9,3 11,0 12,0 10 5 17 9 WSW 1018,6 7 60 0,0
23.05.2019 07:00:00 8,3 7,5 8,5 7,7 11,1 12,0 9 5 14 8 W 1018,3 4,3 30 0,0
23.05.2019 06:00:00 6,7 6,2 5,1 7,0 11,4 12,0 9 5 13 7 W 1018,1 4,2 0 0,0
23.05.2019 05:00:00 5,9 5,6 2,8 7,1 11,7 12,0 8 4 10 6 W 1018,2 4,2 0 0,0
23.05.2019 04:00:00 5,5 5,5 2,2 7,4 12,0 12,1 4 2 6 4 W 1018,3 5 0 0,0
23.05.2019 03:00:00 4,5 4,4 2,3 7,8 12,3 12,1 5 3 6 4 SW 1018,5 2,8 0 0,0
23.05.2019 02:00:00 6,3 5,8 2,7 8,2 12,7 12,1 3 1 9 5 WNW 1018,4 16 0 0,0
23.05.2019 01:00:00 6,8 6,0 3,2 8,7 13,0 12,1 7 4 10 5 WSW 1018,6 25 0 0,0
23.05.2019 00:00:00 6,9 5,6 4,2 9,5 13,4 12,1 5 3 17 9 W 1018,4 29 0 0,0
22.05.2019 23:00:00 8,6 6,5 6,4 10,2 13,7 12,1 11 6 15 8 W 1018,2 38 0 0,0
22.05.2019 22:00:00 9,3 7,1 7,0 11,3 14,1 12,1 8 5 20 11 W 1018,1 39 0 0,0
22.05.2019 21:00:00 10,9 7,4 9,3 12,6 14,3 12,1 11 6 27 15 W 1017,7 41 44 0,0
22.05.2019 20:00:00 12,6 7,7 12,3 14,8 14,3 12,1 20 11 36 19 W 1017,1 11 53 0,0
22.05.2019 19:00:00 13,7 7,8 14,1 17,0 14,2 12,1 19 10 37 20 WNW 1016,8 9 58 0,0
22.05.2019 18:00:00 14,2 8,2 16,4 17,5 13,9 12,0 20 11 41 22 WNW 1016,5 17 41 0,0
22.05.2019 17:00:00 13,0 8,2 15,3 15,4 13,8 12,0 21 11 37 20 WNW 1016,6 52 4 0,0
22.05.2019 16:00:00 12,2 8,5 13,4 15,1 13,6 12,0 24 13 38 20 W 1016,4 19 0 0,0
22.05.2019 15:00:00 11,9 9,1 13,4 14,5 13,5 12,0 23 13 42 23 WNW 1016,1 16 0 0,0
22.05.2019 14:00:00 11,6 9,6 12,3 13,5 13,4 12,0 22 12 35 19 WNW 1015,7 19 0 0,0
22.05.2019 13:00:00 11,3 9,7 12,2 13,1 13,4 12,0 19 10 35 19 WNW 1015,3 14 0 0,0
22.05.2019 12:00:00 10,9 9,5 11,0 12,8 13,4 12,0 21 11 35 19 WNW 1015,0 14 0 0,1
22.05.2019 11:00:00 10,8 9,5 10,8 12,7 13,4 12,0 23 13 40 21 WNW 1014,1 7 0 0,7
22.05.2019 10:00:00 10,6 9,5 10,4 12,2 13,5 12,0 21 11 37 20 WNW 1013,5 7 0 0,6
22.05.2019 09:00:00 10,5 9,5 10,3 12,1 13,6 12,0 21 12 35 19 WNW 1012,8 5 0 1,2
22.05.2019 08:00:00 10,6 9,7 10,2 11,9 13,8 11,9 21 11 38 20 WNW 1012,4 6 0 1,4
22.05.2019 07:00:00 10,5 9,7 10,3 11,9 14,0 11,9 16 9 35 19 WNW 1011,7 3,5 0 1,8
22.05.2019 06:00:00 10,7 10,0 10,3 12,1 14,2 11,9 18 10 29 16 WNW 1011,2 6 0 1,5
22.05.2019 05:00:00 10,8 10,0 10,4 12,3 14,3 11,9 16 9 33 18 WNW 1010,8 4,3 0 1,1
22.05.2019 04:00:00 11,1 10,2 10,7 12,6 14,5 11,9 21 11 31 17 W 1010,5 15 0 0,0
22.05.2019 03:00:00 11,4 10,7 11,1 12,9 14,7 11,9 19 10 32 17 W 1010,0 11 0 0,6
22.05.2019 02:00:00 11,9 11,2 11,6 13,2 14,9 11,9 19 11 32 17 W 1009,8 7 0 1,5
22.05.2019 01:00:00 12,3 11,7 12,0 13,5 15,1 11,9 19 11 31 17 W 1009,8 8 0 2,2
22.05.2019 00:00:00 12,4 11,8 12,1 13,8 15,3 11,9 18 10 37 20 W 1009,7 1,2 0 1,9
21.05.2019 23:00:00 13,0 12,3 12,6 14,4 15,5 11,9 18 10 29 16 W 1009,4 5 0 0,5
21.05.2019 22:00:00 13,8 13,0 13,4 14,9 15,6 11,9 17 9 28 15 W 1009,4 13 0 0,1
21.05.2019 21:00:00 14,6 13,9 14,2 15,5 15,7 11,8 17 9 24 13 W 1008,5 5 0 0,1
21.05.2019 20:00:00 15,5 15,0 15,2 16,0 15,8 11,8 13 7 18 10 W 1008,0 2,9 0 0,4
21.05.2019 19:00:00 15,5 15,3 15,4 16,1 15,9 11,8 10 5 16 9 SW 1007,9 3,5 0 6,2
21.05.2019 18:00:00 15,6 15,2 15,4 16,4 15,9 11,8 7 4 9 5 S 1007,9 0,8 0 8,8
21.05.2019 17:00:00 16,5 15,3 15,9 16,8 15,9 11,8 4 2 9 5 WNW 1007,5 6 0 0,0
21.05.2019 16:00:00 16,6 15,0 16,2 17,2 15,9 11,8 5 3 13 7 N 1007,4 7 0 0,3
21.05.2019 15:00:00 16,4 14,3 16,6 17,1 15,9 11,8 9 5 19 10 N 1007,3 7 0 0,0
21.05.2019 14:00:00 16,2 13,9 16,9 17,0 15,9 11,8 8 5 20 11 NNW 1007,2 8 0 0,0
21.05.2019 13:00:00 15,9 13,5 16,4 17,4 15,8 11,8 13 7 23 12 N 1007,2 8 0 0,0
21.05.2019 12:00:00 15,8 13,3 16,1 17,0 15,8 11,7 15 8 23 13 N 1007,0 11 0 0,0
21.05.2019 11:00:00 15,8 13,4 17,4 17,3 15,7 11,7 14 8 27 14 N 1006,5 12 0 0,0
21.05.2019 10:00:00 15,1 13,5 16,1 16,5 15,7 11,7 14 8 27 15 NNW 1006,3 8 0 0,0
21.05.2019 09:00:00 14,4 13,0 15,0 15,8 15,7 11,7 15 8 24 13 N 1006,2 8 0 0,0
21.05.2019 08:00:00 14,4 13,3 14,6 15,4 15,8 11,7 16 8 23 12 NNW 1005,8 7 0 0,0
21.05.2019 07:00:00 14,2 13,2 14,0 15,2 15,9 11,7 14 8 25 13 N 1005,9 6 0 0,0
21.05.2019 06:00:00 14,4 13,4 14,0 15,1 16,1 11,7 11 6 26 14 N 1005,7 6 0 0,0
21.05.2019 05:00:00 14,5 13,4 14,0 15,1 16,3 11,6 13 7 25 14 N 1005,7 8 0 0,0
21.05.2019 04:00:00 14,7 13,4 13,9 15,3 16,6 11,6 14 8 33 18 NNE 1005,8 9 0 0,2
21.05.2019 03:00:00 15,0 13,1 14,0 15,6 16,8 11,6 13 7 26 14 NNE 1005,5 13 0 0,2
21.05.2019 02:00:00 15,5 13,1 14,4 15,9 17,1 11,6 11 6 24 13 N 1005,3 22 0 0,0
21.05.2019 01:00:00 15,7 13,6 14,7 16,4 17,3 11,6 9 5 24 13 N 1005,7 21 0 3,0
21.05.2019 00:00:00 16,7 12,7 16,2 17,5 17,6 11,6 8 4 24 13 NE 1006,2 35 0 0,0
20.05.2019 23:00:00 16,1 12,8 15,2 17,6 17,9 11,6 12 7 18 10 NNW 1005,6 31 0 0,0
20.05.2019 22:00:00 16,5 13,5 15,4 18,5 18,1 11,6 9 5 24 13 N 1005,9 26 0 0,0
20.05.2019 21:00:00 17,7 13,5 16,9 20,0 18,3 11,5 13 7 24 13 NNE 1006,2 39 0 0,0
20.05.2019 20:00:00 18,5 13,7 18,7 22,4 18,3 11,5 14 8 24 13 NNE 1005,7 22 3 0,0
20.05.2019 19:00:00 19,2 14,6 20,7 24,3 18,1 11,5 13 7 27 15 NNE 1005,8 11 39 0,0
20.05.2019 18:00:00 19,6 14,8 22,2 25,6 17,7 11,5 15 8 31 17 NNE 1005,8 10 47 0,0
20.05.2019 17:00:00 19,9 14,8 24,9 26,4 17,2 11,5 16 9 27 15 NNE 1005,7 6 45 0,0
20.05.2019 16:00:00 19,0 15,2 21,6 24,3 16,8 11,5 11 6 20 11 NNE 1006,4 24 25 0,0
20.05.2019 15:00:00 17,5 14,6 20,9 22,4 16,4 11,5 12 6 22 12 NNE 1007,0 14 0 0,0
20.05.2019 14:00:00 16,0 13,7 19,4 20,9 16,2 11,4 13 7 22 12 NNE 1007,2 15 0 0,0
20.05.2019 13:00:00 15,7 13,6 18,4 20,2 15,9 11,4 11 6 21 12 NNE 1007,2 12 0 0,0
20.05.2019 12:00:00 14,6 13,1 16,9 19,0 15,8 11,4 13 7 22 12 NNE 1007,2 13 0 0,0
20.05.2019 11:00:00 14,2 13,2 16,3 18,4 15,6 11,4 13 7 21 12 NE 1007,2 8 0 0,0
20.05.2019 10:00:00 13,8 13,3 15,7 17,3 15,6 11,4 11 6 23 13 NE 1006,8 7 0 0,0
20.05.2019 09:00:00 12,7 12,6 14,0 15,7 15,6 11,3 10 5 18 10 NNE 1006,8 3,7 0 0,0
20.05.2019 08:00:00 12,2 12,2 12,7 15,2 15,7 11,3 10 5 21 12 NE 1006,6 0,3 0 0,0
20.05.2019 07:00:00 11,9 11,8 12,1 14,9 15,9 11,3 11 6 20 11 NE 1006,4 0,5 0 0,0
20.05.2019 06:00:00 12,4 12,4 12,5 14,9 16,1 11,3 9 5 14 7 NE 1006,3 0,4 0 0,0
20.05.2019 05:00:00 12,1 12,1 12,2 14,9 16,3 11,3 7 4 15 8 NE 1006,6 0,3 0 0,0
20.05.2019 04:00:00 11,6 11,6 11,6 15,1 16,6 11,3 12 7 24 13 NE 1006,6 0,6 0 0,0
20.05.2019 03:00:00 12,1 12,1 12,1 15,4 16,9 11,3 8 4 19 10 NE 1006,6 0,2 0 0,0
20.05.2019 02:00:00 11,6 11,6 11,6 15,7 17,2 11,2 10 5 21 12 ENE 1007,0 0,3 0 0,0
20.05.2019 01:00:00 11,7 11,6 11,7 16,0 17,5 11,2 13 7 25 14 NNE 1007,5 0,3 0 0,0
20.05.2019 00:00:00 12,3 12,2 12,2 16,5 17,9 11,2 10 6 21 11 NNE 1007,4 0,3 0 0,0
19.05.2019 23:00:00 12,8 12,2 12,0 16,8 18,4 11,2 11 6 22 12 NE 1007,4 3,5 0 0,0
19.05.2019 22:00:00 13,8 12,4 12,3 18,0 18,8 11,2 9 5 19 10 NE 1007,2 9 0 0,0
19.05.2019 21:00:00 14,5 12,6 13,4 19,9 19,2 11,2 11 6 26 14 NE 1007,0 11 36 0,0
19.05.2019 20:00:00 15,5 12,6 15,9 23,3 19,4 11,2 17 9 30 16 NE 1007,1 13 60 0,0
19.05.2019 19:00:00 18,1 13,9 20,0 26,4 19,3 11,1 14 8 23 13 NNE 1006,7 10 60 0,0
19.05.2019 18:00:00 19,4 13,4 22,5 28,1 19,0 11,1 13 7 29 16 NE 1006,8 7 60 0,0
19.05.2019 17:00:00 19,9 13,4 24,4 29,5 18,5 11,1 15 8 29 15 NE 1007,0 6 60 0,0
19.05.2019 16:00:00 19,7 13,4 25,1 29,6 17,8 11,1 18 10 26 14 NNE 1007,2 5 60 0,0
19.05.2019 15:00:00 20,3 14,2 26,7 28,8 17,0 11,1 16 8 28 15 NNE 1007,5 10 60 0,0
19.05.2019 14:00:00 19,1 13,7 25,0 27,0 16,2 11,1 14 7 20 11 NNE 1007,8 7 60 0,0
19.05.2019 13:00:00 17,3 12,8 22,2 23,6 15,6 11,1 10 6 18 10 NNE 1008,0 13 42 0,0
19.05.2019 12:00:00 16,7 13,0 23,6 22,0 15,1 11,0 7 4 19 10 ENE 1008,1 12 29 0,0
19.05.2019 11:00:00 12,6 10,8 16,3 18,3 14,9 11,0 11 6 20 11 NNE 1008,6 7 0 0,0
19.05.2019 10:00:00 12,0 11,3 15,4 16,9 14,8 11,0 10 5 16 9 NNE 1008,5 6 0 0,0
19.05.2019 09:00:00 11,0 10,8 12,6 15,4 14,9 11,0 9 5 17 9 ENE 1008,5 2,2 0 0,0
19.05.2019 08:00:00 10,5 10,4 11,6 14,6 15,0 11,0 9 5 16 8 ENE 1008,3 0,8 0 0,0
19.05.2019 07:00:00 10,3 10,2 10,8 14,1 15,2 11,0 11 6 20 11 NE 1008,3 0,4 0 0,0
19.05.2019 06:00:00 10,4 10,4 10,6 13,9 15,4 11,0 10 6 22 12 NE 1008,2 0,3 0 0,0
19.05.2019 05:00:00 10,6 10,6 10,7 14,1 15,6 10,9 10 5 16 9 ENE 1007,9 0,3 0 0,0
19.05.2019 04:00:00 10,5 10,4 10,6 14,4 15,9 10,9 11 6 19 11 ENE 1008,0 0,3 0 0,0
19.05.2019 03:00:00 10,7 10,6 10,8 14,7 16,2 10,9 7 4 20 11 ENE 1008,4 0,5 0 0,0
19.05.2019 02:00:00 11,0 10,9 11,0 15,0 16,5 10,9 9 5 18 10 NE 1008,3 0,6 0 0,0
19.05.2019 01:00:00 11,3 11,0 11,2 15,4 16,9 10,9 9 5 14 8 NE 1008,6 0,6 0 0,0
19.05.2019 00:00:00 11,2 10,6 10,2 15,4 17,4 10,9 7 4 12 7 NE 1008,6 2,4 0 0,0
18.05.2019 23:00:00 12,0 10,7 10,2 16,4 17,8 10,9 7 4 16 9 NE 1008,5 4,1 0 0,0
18.05.2019 22:00:00 13,3 11,0 12,2 17,9 18,3 10,9 10 5 21 11 NE 1008,5 7 0 0,0
18.05.2019 21:00:00 15,2 11,1 14,3 20,2 18,6 10,9 10 6 23 12 NE 1008,4 10 2 0,0
18.05.2019 20:00:00 17,8 12,0 18,3 23,1 18,7 10,9 13 7 27 14 ENE 1008,2 10 57 0,0
18.05.2019 19:00:00 19,4 12,6 20,6 25,9 18,7 10,9 15 8 31 17 ENE 1007,6 9 60 0,0
18.05.2019 18:00:00 20,2 12,9 22,8 27,8 18,4 10,9 17 9 35 19 ENE 1007,7 5 60 0,0
18.05.2019 17:00:00 20,8 13,0 24,6 29,1 17,9 10,9 16 8 32 17 ENE 1007,8 7 60 0,0
18.05.2019 16:00:00 20,7 12,8 25,2 29,7 17,3 10,9 15 8 31 17 ENE 1008,1 8 60 0,0
18.05.2019 15:00:00 20,5 11,6 25,3 28,8 16,5 10,9 18 10 28 15 E 1008,3 4,6 60 0,0
18.05.2019 14:00:00 19,8 13,0 25,1 27,7 15,6 10,9 13 7 23 13 E 1008,6 6 60 0,0
18.05.2019 13:00:00 17,6 11,8 23,6 25,4 14,9 10,8 12 7 22 12 E 1008,9 6 60 0,0
18.05.2019 12:00:00 16,1 12,0 21,8 22,7 14,2 10,8 14 8 22 12 ENE 1009,6 6 60 0,0
18.05.2019 11:00:00 15,5 11,4 20,8 20,1 13,7 10,8 12 7 22 12 E 1009,7 6 60 0,0
18.05.2019 10:00:00 14,1 10,7 19,0 17,4 13,4 10,8 9 5 19 11 SE 1009,8 8 36 0,0
18.05.2019 09:00:00 13,2 10,9 15,3 15,5 13,2 10,8 8 4 18 10 E 1009,7 10 0 0,0
18.05.2019 08:00:00 12,6 10,9 13,4 14,3 13,2 10,8 6 4 18 10 E 1009,8 8 0 0,0
18.05.2019 07:00:00 11,7 11,0 12,1 13,2 13,3 10,8 11 6 18 10 ENE 1009,6 4,0 0 0,0
18.05.2019 06:00:00 11,7 11,3 11,7 12,8 13,4 10,8 6 4 14 8 E 1009,7 3,7 0 0,0
18.05.2019 05:00:00 11,4 11,1 11,2 12,8 13,5 10,8 7 4 14 8 ENE 1009,9 3,4 0 0,0
18.05.2019 04:00:00 11,0 10,7 11,0 12,9 13,7 10,8 8 5 14 8 ENE 1009,9 2,7 0 0,0
18.05.2019 03:00:00 10,5 10,2 10,5 12,9 13,9 10,8 8 4 16 9 ENE 1010,1 3,5 0 0,0

tt = Température de l'air
td = dewpoint
tt 5cm = Température de l'air 5cm
tt -5cm = Température de l'air -5cm
tt -20cm = Température de l'air -20cm
tt -100cm = Température de l'air -100cm
ff = Vitesse du vent
fx = gusts
dd = Direction du vent
ppp = reduced air pressure
vv = visibility
sd = Ensoleillement
rr = Quantités de précipitations

stations d'obs. à proximité